| time (UTC) | temp F | wind direction | speed knots | gust knots | rain 1hr in | rain 24hr in | rain mn in | humidity % | barometer mb |
| 20260510180059 | 78 | 39 | 5.2 | 10.4 | 0.00 | 0.24 | 0.01 | 89 | 1016.5 |
| 20260510174538 | 78 | 57 | 2.6 | 10.4 | 0.00 | 0.30 | 0.01 | 90 | 1016.5 |
| 20260510173037 | 78 | 51 | 5.2 | 11.3 | 0.00 | 0.30 | 0.01 | 89 | 1016.7 |
| 20260510171545 | 80 | 78 | 1.7 | 8.7 | 0.00 | 0.30 | 0.01 | 88 | 1016.9 |
| 20260510170033 | 76 | 15 | 6.1 | 12.2 | 0.00 | 0.30 | 0.01 | 93 | 1017.1 |
| 20260510164533 | 77 | 51 | 3.5 | 10.4 | 0.00 | 0.83 | 0.01 | 92 | 1017.0 |
| 20260510163031 | 77 | 360 | 3.5 | 9.6 | 0.00 | 0.83 | 0.01 | 92 | 1017.0 |
| 20260510161529 | 77 | 5 | 1.7 | 9.6 | 0.00 | 0.83 | 0.01 | 93 | 1017.1 |
| 20260510160036 | 77 | 46 | 6.1 | 10.4 | 0.00 | 0.83 | 0.01 | 90 | 1017.1 |
| 20260510154530 | 76 | 77 | 2.6 | 10.4 | 0.00 | 1.00 | 0.01 | 92 | 1016.8 |
| 20260510153024 | 75 | 44 | 2.6 | 9.6 | 0.00 | 1.00 | 0.01 | 95 | 1016.9 |
| 20260510151526 | 74 | 86 | 1.7 | 8.7 | 0.00 | 1.00 | 0.01 | 96 | 1016.9 |
| 20260510150016 | 73 | 19 | 6.1 | 11.3 | 0.00 | 1.00 | 0.01 | 97 | 1017.1 |
| 20260510144600 | 73 | 22 | 3.5 | 9.6 | 0.00 | 1.07 | 0.01 | 98 | 1017.3 |
| 20260510143101 | 72 | 360 | 2.6 | 7.8 | 0.00 | 1.07 | 0.01 | 99 | 1017.2 |
| 20260510141555 | 72 | 88 | 1.7 | 5.2 | 0.00 | 1.07 | 0.01 | 100 | 1017.1 |
| 20260510140052 | 71 | 91 | 1.7 | 7.0 | 0.00 | 1.07 | 0.01 | 100 | 1016.9 |
| 20260510134550 | 71 | 35 | 0.9 | 5.2 | 0.00 | 1.50 | 0.01 | 100 | 1016.9 |
| 20260510133047 | 70 | 67 | 0.9 | 7.8 | 0.00 | 1.50 | 0.01 | 100 | 1016.9 |
| 20260510131544 | 70 | 78 | 0.0 | 6.1 | 0.00 | 1.50 | 0.01 | 100 | 1016.6 |
| 20260510130043 | 69 | 49 | 0.9 | 9.6 | 0.00 | 1.50 | 0.01 | 100 | 1016.3 |
| 20260510124540 | 69 | 63 | 0.9 | 5.2 | 0.00 | 1.50 | 0.01 | 100 | 1016.1 |
| 20260510123038 | 69 | 55 | 1.7 | 6.1 | 0.00 | 1.50 | 0.01 | 100 | 1015.8 |
| 20260510121536 | 68 | 53 | 0.0 | 2.6 | 0.00 | 1.50 | 0.01 | 100 | 1015.6 |
| 20260510120035 | 68 | 119 | 0.0 | 1.7 | 0.00 | 1.50 | 0.01 | 100 | 1015.4 |
| 20260510114534 | 68 | 94 | 0.0 | 3.5 | 0.00 | 1.50 | 0.01 | 100 | 1015.2 |
| 20260510113033 | 68 | 71 | 0.0 | 1.7 | 0.00 | 1.50 | 0.01 | 100 | 1015.0 |
| 20260510111529 | 68 | 64 | 0.0 | 3.5 | 0.00 | 1.50 | 0.01 | 100 | 1014.7 |
| 20260510110033 | 69 | 130 | 0.0 | 4.3 | 0.00 | 1.50 | 0.01 | 100 | 1014.4 |
| 20260510104525 | 69 | 63 | 0.9 | 3.5 | 0.00 | 1.50 | 0.01 | 100 | 1014.2 |
| 20260510103024 | 69 | 89 | 0.0 | 3.5 | 0.00 | 1.50 | 0.01 | 100 | 1013.8 |
| 20260510101522 | 69 | 46 | 0.9 | 1.7 | 0.00 | 1.50 | 0.01 | 100 | 1013.7 |
| 20260510100022 | 69 | 42 | 0.9 | 2.6 | 0.00 | 1.50 | 0.01 | 100 | 1013.5 |
| 20260510094535 | 69 | 80 | 0.0 | 2.6 | 0.00 | 1.50 | 0.01 | 100 | 1013.6 |
| 20260510093021 | 69 | 86 | 0.9 | 7.0 | 0.00 | 1.50 | 0.01 | 100 | 1013.5 |
| 20260510091522 | 69 | 54 | 1.7 | 4.3 | 0.00 | 1.50 | 0.01 | 100 | 1013.4 |
| 20260510090020 | 69 | 58 | 2.6 | 7.8 | 0.01 | 1.50 | 0.01 | 100 | 1013.4 |
| 20260510084520 | 69 | 20 | 3.5 | 8.7 | 0.01 | 1.50 | 0.01 | 100 | 1013.4 |
| 20260510083027 | 69 | 36 | 3.5 | 6.1 | 0.01 | 1.50 | 0.01 | 100 | 1013.4 |
| 20260510081516 | 69 | 45 | 2.6 | 8.7 | 0.01 | 1.50 | 0.01 | 100 | 1013.3 |
| 20260510080022 | 69 | 40 | 3.5 | 7.0 | 0.00 | 1.49 | 0.00 | 100 | 1013.2 |
| 20260510074512 | 69 | 360 | 2.6 | 5.2 | 0.00 | 1.49 | 0.00 | 100 | 1013.1 |
| 20260510073018 | 68 | 46 | 1.7 | 4.3 | 0.00 | 1.49 | 0.00 | 100 | 1013.0 |
| 20260510071510 | 68 | 55 | 0.9 | 3.5 | 0.00 | 1.49 | 0.00 | 100 | 1012.8 |
| 20260510070009 | 68 | 53 | 0.9 | 3.5 | 0.00 | 1.49 | 0.00 | 100 | 1012.8 |
| 20260510064508 | 67 | 56 | 1.7 | 2.6 | 0.00 | 1.49 | 0.00 | 100 | 1013.1 |
| 20260510063009 | 67 | 48 | 0.0 | 2.6 | 0.00 | 1.49 | 0.00 | 100 | 1013.0 |
| 20260510061509 | 68 | 129 | 0.0 | 2.6 | 0.00 | 1.49 | 0.00 | 100 | 1012.9 |
| 20260510060009 | 68 | 63 | 0.0 | 4.3 | 0.00 | 1.49 | 0.00 | 100 | 1013.2 |
| 20260510054508 | 68 | 120 | 0.0 | 0.0 | 0.00 | 1.49 | 0.00 | 100 | 1013.0 |
| 20260510053002 | 68 | 137 | 0.9 | 6.1 | 0.00 | 1.49 | 0.00 | 100 | 1012.9 |
| 20260510051606 | 68 | 132 | 0.0 | 3.5 | 0.00 | 1.49 | 0.00 | 100 | 1012.9 |
| 20260510050104 | 68 | 143 | 2.6 | 7.0 | 0.00 | 1.49 | 0.00 | 100 | 1012.9 |
| 20260510044617 | 68 | 116 | 1.7 | 7.0 | 0.00 | 1.49 | 1.49 | 100 | 1012.8 |
| 20260510043058 | 68 | 148 | 4.3 | 7.8 | 0.00 | 1.49 | 1.49 | 100 | 1013.0 |
| 20260510041557 | 68 | 152 | 1.7 | 8.7 | 0.00 | 1.49 | 1.49 | 100 | 1013.3 |
| 20260510040059 | 68 | 153 | 3.5 | 7.8 | 0.00 | 1.49 | 1.49 | 100 | 1013.2 |
| 20260510034556 | 68 | 135 | 4.3 | 9.6 | 0.00 | 1.49 | 1.49 | 100 | 1013.0 |
| 20260510033107 | 68 | 153 | 4.3 | 7.0 | 0.00 | 1.49 | 1.49 | 100 | 1013.3 |
| 20260510031555 | 68 | 204 | 0.0 | 2.6 | 0.00 | 1.49 | 1.49 | 100 | 1013.8 |
| 20260510024555 | 68 | 201 | 0.0 | 1.7 | 0.00 | 1.49 | 1.49 | 100 | 1013.9 |
| 20260510023054 | 68 | 167 | 0.0 | 2.6 | 0.00 | 1.49 | 1.49 | 100 | 1013.6 |
| 20260510021559 | 68 | 360 | 0.9 | 4.3 | 0.00 | 1.49 | 1.49 | 100 | 1013.3 |
| 20260510020052 | 68 | 138 | 4.3 | 7.0 | 0.00 | 1.49 | 1.49 | 100 | 1013.1 |
| 20260510014553 | 68 | 164 | 2.6 | 7.0 | 0.00 | 1.49 | 1.49 | 100 | 1013.1 |
| 20260510013051 | 68 | 128 | 2.6 | 6.1 | 0.00 | 1.49 | 1.49 | 100 | 1012.8 |
| 20260510011551 | 69 | 142 | 3.5 | 7.8 | 0.00 | 1.49 | 1.49 | 100 | 1012.7 |
| 20260510010049 | 69 | 150 | 4.3 | 7.8 | 0.00 | 1.49 | 1.49 | 100 | 1012.7 |
| 20260510004551 | 69 | 126 | 4.3 | 7.8 | 0.00 | 1.52 | 1.49 | 100 | 1012.7 |
| 20260510003050 | 69 | 169 | 3.5 | 7.0 | 0.00 | 1.52 | 1.49 | 100 | 1012.6 |
| 20260510001547 | 69 | 150 | 2.6 | 5.2 | 0.02 | 1.52 | 1.49 | 100 | 1012.7 |
| 20260510000048 | 69 | 155 | 1.7 | 7.0 | 0.04 | 1.52 | 1.49 | 100 | 1012.7 |
| 20260509234546 | 69 | 160 | 1.7 | 6.1 | 0.04 | 1.52 | 1.49 | 100 | 1012.7 |
| 20260509233045 | 69 | 360 | 2.6 | 6.1 | 0.04 | 1.52 | 1.49 | 100 | 1012.4 |
| 20260509231546 | 69 | 168 | 1.7 | 7.0 | 0.02 | 1.50 | 1.47 | 100 | 1012.9 |
| 20260509230044 | 69 | 128 | 0.9 | 6.1 | 0.00 | 1.48 | 1.45 | 100 | 1012.7 |
| 20260509224544 | 69 | 169 | 0.9 | 6.1 | 0.01 | 1.48 | 1.45 | 100 | 1012.5 |
| 20260509223043 | 69 | 134 | 2.6 | 6.1 | 0.01 | 1.48 | 1.45 | 100 | 1012.4 |
| 20260509221542 | 69 | 161 | 1.7 | 3.5 | 0.01 | 1.48 | 1.45 | 100 | 1011.7 |
| 20260509220041 | 70 | 192 | 0.9 | 3.5 | 0.01 | 1.48 | 1.45 | 100 | 1012.1 |
| 20260509214541 | 69 | 199 | 0.9 | 5.2 | 0.00 | 1.58 | 1.44 | 100 | 1012.4 |
| 20260509213043 | 69 | 190 | 2.6 | 8.7 | 0.00 | 1.58 | 1.44 | 100 | 1012.6 |
| 20260509211538 | 68 | 162 | 6.1 | 10.4 | 0.01 | 1.58 | 1.44 | 100 | 1011.5 |
| 20260509210049 | 68 | 149 | 3.5 | 7.8 | 0.02 | 1.58 | 1.44 | 100 | 1011.7 |
| 20260509204541 | 68 | 161 | 3.5 | 8.7 | 0.04 | 2.13 | 1.44 | 100 | 1011.4 |
| 20260509203041 | 69 | 139 | 3.5 | 7.0 | 0.06 | 2.13 | 1.44 | 100 | 1011.9 |
| 20260509201537 | 68 | 168 | 1.7 | 6.1 | 0.07 | 2.12 | 1.43 | 100 | 1012.4 |
| 20260509200035 | 68 | 144 | 1.7 | 4.3 | 0.10 | 2.11 | 1.42 | 100 | 1013.2 |
| 20260509194534 | 67 | 122 | 1.7 | 4.3 | 0.10 | 2.09 | 1.40 | 100 | 1013.0 |
| 20260509193040 | 67 | 151 | 2.6 | 7.8 | 0.09 | 2.06 | 1.38 | 100 | 1012.9 |
| 20260509191539 | 67 | 150 | 1.7 | 4.3 | 0.08 | 2.04 | 1.36 | 100 | 1013.3 |
| 20260509190033 | 67 | 136 | 0.0 | 0.9 | 0.06 | 2.00 | 1.32 | 100 | 1013.7 |
| 20260509184541 | 67 | 145 | 0.0 | 2.6 | 0.05 | 1.99 | 1.30 | 100 | 1013.0 |
| 20260509183033 | 67 | 129 | 3.5 | 6.1 | 0.05 | 1.98 | 1.29 | 100 | 1013.0 |
| 20260509181533 | 67 | 178 | 1.7 | 4.3 | 0.05 | 1.97 | 1.28 | 100 | 1013.5 |